User: anonymous   Login
Location: Unspecified
(0.0000°N, 0.0000°E)
Time: 01:58:04
(UTC+00:00)
Language:

UNISAT 6 - Orbit

View from above orbital plane
View from above orbital plane
View from above satellite
View from above satellite

Ground track
Ground track

The orbit data is extracted from the following two-line orbital elements,

1 40012U 14033C   17325.52585462  .00000321  00000-0  55345-4 0  9995
2 40012  97.8338 204.1233 0059166 146.7886 213.7058 14.73719674184119
Epoch (UTC): 21 November 2017 12:37:13
Eccentricity: 0.0059166
inclination: 97.8338°
perigee height: 607 km
apogee height: 691 km
right ascension of ascending node: 204.1233°
argument of perigee: 146.7886°
revolutions per day: 14.73719674
mean anomaly at epoch: 213.7058°
orbit number at epoch: 18411

The dashed part of the orbit path shows where the satellite is in the earth's shadow,  

DLR